Location: Newark
(50.0336°N, 22.0047°E)
Time: 01:00:58
(UTC+00:00)

Envisat - Pass Details

Date: 04 February 2020
Orbit: 764 x 766 km, 98.1° (Epoch: 20 February)

Event Time Altitude Azimuth Distance (km) Brightness Sun altitude
Rises 17:58:47 0° 224° (SW) 3,224 6.8 -24.0°
Reaches altitude 10° 18:02:53 10° 257° (WSW) 2,305 6.4 -24.7°
Maximum altitude 18:04:33 11° 276° (W) 2,205 6.4 -24.9°
Drops below altitude 10° 18:06:12 10° 295° (WNW) 2,311 6.4 -25.2°
Sets 18:10:21 0° 328° (NNW) 3,244 6.7 -25.9°
